Waarnemingen

Advertentie
Mijn weer
St-Dizier, Frankrijk (7169): temperatuur & dauwpunt: 13.04.2019 06:00:00 - 19.04.2019 06:00:00 (CEST)St-Dizier, Frankrijk (7169): temperatuur 5cm: 13.04.2019 06:00:00 - 19.04.2019 06:00:00 (CEST)St-Dizier, Frankrijk (7169): temperatuur -20cm & temperatuur -100cm: 13.04.2019 06:00:00 - 19.04.2019 06:00:00 (CEST)St-Dizier, Frankrijk (7169): windsnelheid & windstoten: 13.04.2019 06:00:00 - 19.04.2019 06:00:00 (CEST)St-Dizier, Frankrijk (7169): windrichting: 13.04.2019 06:00:00 - 19.04.2019 06:00:00 (CEST)St-Dizier, Frankrijk (7169): luchtdruk: 13.04.2019 06:00:00 - 19.04.2019 06:00:00 (CEST)St-Dizier, Frankrijk (7169): zicht: 13.04.2019 06:00:00 - 19.04.2019 06:00:00 (CEST)St-Dizier, Frankrijk (7169): Zonneschijnduur: 13.04.2019 06:00:00 - 19.04.2019 06:00:00 (CEST)St-Dizier, Frankrijk (7169): neerslag: 13.04.2019 06:00:00 - 19.04.2019 06:00:00 (CEST)
Datum & Tijd tt [°C] td [°C] tt 5cm [°C] tt -20cm [°C] tt -100cm [°C] ff [km/u] ff [kn] fx [km/u] fx [kn] dd ppp [hPa] vv [km] sd [min] rr [mm]
19.04.2019 06:00:00 9,5 4,3 7,9 12,9 10,1 13 7 17 9 O 1023,2 45 0 0,0
19.04.2019 05:00:00 9,5 4,7 6,3 13,0 10,1 10 5 15 8 O 1023,1 38 0 0,0
19.04.2019 04:00:00 8,2 4,4 6,4 13,2 10,1 0 0 5 3 N 1022,7 27 0 0,0
19.04.2019 03:00:00 9,6 5,0 7,8 13,3 10,1 5 3 9 5 O 1022,4 36 0 0,0
19.04.2019 02:00:00 11,1 5,0 9,1 13,3 10,1 0 0 11 6 N 1022,2 31 0 0,0
19.04.2019 01:00:00 12,3 5,0 9,9 13,4 10,0 8 4 11 6 O 1021,9 42 0 0,0
19.04.2019 00:00:00 14,2 4,7 11,6 13,3 10,0 5 3 17 9 O 1021,6 56 0 0,0
18.04.2019 23:00:00 14,6 4,8 12,0 13,3 10,0 13 7 17 9 O 1021,3 57 0 0,0
18.04.2019 22:00:00 17,1 4,1 13,5 13,1 10,0 8 4 15 8 ONO 1021,1 60 0 0,0
18.04.2019 21:00:00 17,4 3,3 15,9 12,9 10,0 11 6 19 10 ONO 1020,4 60 7 0,0
18.04.2019 20:00:00 21,3 2,5 20,0 12,7 10,0 16 8 24 13 ONO 1019,7 59 57 0,0
18.04.2019 19:00:00 21,7 3,4 23,1 12,4 10,0 13 7 27 15 OZO 1019,3 48 60 0,0
18.04.2019 18:00:00 22,9 1,8 25,0 12,0 10,0 15 8 33 18 OZO 1018,9 35 60 0,0
18.04.2019 17:00:00 23,0 3,0 25,0 11,7 10,0 15 8 35 19 O 1018,8 32 60 0,0
18.04.2019 16:00:00 22,8 2,8 26,3 11,4 9,9 14 8 32 18 O 1019,0 36 60 0,0
18.04.2019 15:00:00 22,1 5,5 25,7 11,2 9,9 17 9 32 17 O 1019,3 15 60 0,0
18.04.2019 14:00:00 21,7 6,4 24,7 11,1 9,9 18 10 30 16 O 1019,5 19 60 0,0
18.04.2019 13:00:00 20,4 6,0 23,5 11,0 9,9 17 9 27 15 O 1019,9 19 60 0,0
18.04.2019 12:00:00 19,3 6,1 22,1 11,0 9,9 18 10 31 17 O 1020,2 21 60 0,0
18.04.2019 11:00:00 18,1 7,2 18,5 11,0 9,9 18 10 26 14 OZO 1020,7 14 60 0,0
18.04.2019 10:00:00 15,7 5,3 15,5 11,2 9,9 20 11 30 16 O 1020,7 14 60 0,0
18.04.2019 09:00:00 13,4 5,8 11,7 11,3 9,9 19 10 28 15 O 1020,7 14 58 0,0
18.04.2019 08:00:00 10,9 6,2 8,6 11,4 9,9 14 7 21 11 OZO 1020,7 15 32 0,0
18.04.2019 07:00:00 9,6 6,3 8,4 11,5 9,9 14 8 21 12 O 1020,3 14 0 0,0
18.04.2019 06:00:00 9,4 6,5 8,2 11,6 9,9 13 7 19 10 O 1019,9 13 0 0,0
18.04.2019 05:00:00 10,0 7,1 8,5 11,8 9,9 12 6 19 10 O 1019,7 13 0 0,0
18.04.2019 04:00:00 10,5 7,2 7,4 11,9 9,8 13 7 16 9 O 1019,8 17 0 0,0
18.04.2019 03:00:00 9,9 7,3 7,5 12,0 9,9 10 5 14 8 O 1019,7 25 0 0,0
18.04.2019 02:00:00 9,8 6,7 7,5 12,1 9,8 9 5 16 9 O 1019,9 46 0 0,0
18.04.2019 01:00:00 11,6 7,3 9,1 12,1 9,8 11 6 18 10 O 1019,5 59 0 0,0
18.04.2019 00:00:00 11,7 7,0 9,1 12,2 9,8 6 4 9 5 O 1019,6 60 0 0,0
17.04.2019 23:00:00 12,2 6,7 9,5 12,1 9,8 6 4 10 6 O 1019,8 60 0 0,0
17.04.2019 22:00:00 12,5 6,3 10,7 12,0 9,8 6 4 10 6 ONO 1019,6 57 0 0,0
17.04.2019 21:00:00 15,9 6,3 14,4 11,9 9,8 11 6 25 13 O 1019,0 60 10 0,0
17.04.2019 20:00:00 17,5 6,4 16,6 11,7 9,8 17 9 25 13 O 1018,4 58 60 0,0
17.04.2019 19:00:00 18,0 6,5 19,0 11,5 9,8 13 7 30 16 OZO 1018,6 44 56 0,0
17.04.2019 18:00:00 18,8 6,3 21,4 11,1 9,8 17 9 28 15 O 1018,4 15 60 0,0
17.04.2019 17:00:00 18,2 5,7 18,2 10,9 9,8 14 8 26 14 O 1019,0 26 35 0,0
17.04.2019 16:00:00 18,8 7,2 18,6 10,6 9,8 5 3 18 10 ZO 1019,3 43 27 0,0
17.04.2019 15:00:00 17,4 7,4 18,1 10,3 9,8 13 7 20 11 O 1019,7 49 17 0,0
17.04.2019 14:00:00 16,3 7,0 18,1 10,1 9,8 5 3 14 8 O 1020,0 60 21 0,0
17.04.2019 13:00:00 16,1 7,3 18,4 10,0 9,8 4 2 9 5 NO 1020,5 19 33 0,0
17.04.2019 12:00:00 14,0 7,3 16,5 9,9 9,8 2 1 11 6 ZZO 1021,0 20 42 0,0
17.04.2019 11:00:00 13,8 9,0 12,8 9,9 9,8 4 2 9 5 ONO 1021,2 15 33 0,0
17.04.2019 10:00:00 11,7 8,7 11,7 9,9 9,8 3 2 8 4 ZO 1021,4 10 0 0,0
17.04.2019 09:00:00 10,7 9,3 10,2 9,9 9,8 4 2 8 4 Z 1021,3 7 0 0,0
17.04.2019 08:00:00 10,0 9,1 9,5 9,9 9,8 0 0 7 4 N 1021,0 6 0 0,0
17.04.2019 07:00:00 9,8 8,9 9,5 10,0 9,8 5 3 8 5 ZZW 1020,7 5 0 0,0
17.04.2019 06:00:00 9,8 8,9 9,5 10,0 9,8 3 2 7 4 ZZO 1020,0 5 0 0,0
17.04.2019 05:00:00 9,8 9,0 9,5 10,0 9,8 5 3 9 5 Z 1020,0 5 0 0,0
17.04.2019 04:00:00 9,8 9,2 9,1 10,1 9,8 5 3 7 4 Z 1020,0 4,7 0 0,0
17.04.2019 03:00:00 9,5 8,9 8,9 10,1 9,8 5 3 7 4 Z 1020,1 3,9 0 0,0
17.04.2019 02:00:00 9,4 8,8 8,1 10,1 9,8 5 3 9 5 Z 1020,1 3,5 0 0,0
17.04.2019 01:00:00 9,7 8,9 9,1 10,1 9,8 6 3 11 6 Z 1020,0 4,9 0 0,2
17.04.2019 00:00:00 9,9 9,1 9,2 10,1 9,8 8 4 12 6 ZZW 1019,8 6 0 0,0
16.04.2019 23:00:00 10,0 9,2 9,4 10,1 9,8 5 3 9 5 ZZW 1019,5 8 0 0,0
16.04.2019 22:00:00 10,1 9,2 9,6 10,0 9,8 5 3 12 6 ZW 1019,3 11 0 0,0
16.04.2019 21:00:00 10,3 9,5 9,9 9,9 9,8 8 4 16 9 WZW 1018,6 32 0 0,0
16.04.2019 20:00:00 10,7 9,9 10,5 9,9 9,8 5 3 19 10 W 1017,9 20 0 0,4
16.04.2019 19:00:00 11,4 10,5 11,3 9,8 9,8 6 3 15 8 ZZW 1017,2 4,6 0 0,2
16.04.2019 18:00:00 11,3 10,4 11,2 9,7 9,8 7 4 16 8 ZZW 1017,0 4,4 0 0,4
16.04.2019 17:00:00 11,1 10,2 10,9 9,7 9,8 9 5 20 11 Z 1016,7 3,6 0 1,1
16.04.2019 16:00:00 11,0 9,7 11,0 9,6 9,8 10 5 22 12 Z 1016,7 7 0 1,4
16.04.2019 15:00:00 11,1 9,8 10,7 9,6 9,8 11 6 22 12 Z 1016,8 4,7 0 1,2
16.04.2019 14:00:00 10,7 9,5 10,4 9,6 9,8 10 5 20 11 Z 1016,6 6 0 0,4
16.04.2019 13:00:00 10,1 8,7 9,8 9,6 9,8 10 5 21 11 Z 1016,9 4,5 0 0,6
16.04.2019 12:00:00 10,2 8,3 9,9 9,6 9,8 12 7 21 11 Z 1016,7 14 0 0,4
16.04.2019 11:00:00 10,1 8,4 9,8 9,7 9,8 12 6 21 11 ZZO 1016,5 15 0 1,0
16.04.2019 10:00:00 9,7 8,1 9,1 9,7 9,8 14 8 29 15 Z 1016,2 13 0 0,6
16.04.2019 09:00:00 10,2 6,2 9,7 9,8 9,8 18 10 39 21 ZZW 1015,8 17 0 0,0
16.04.2019 08:00:00 10,1 3,6 6,6 9,9 9,8 11 6 17 9 Z 1015,1 58 9 0,0
16.04.2019 07:00:00 8,0 2,0 6,6 10,0 9,8 4 2 13 7 OZO 1014,5 40 0 0,0
16.04.2019 06:00:00 9,1 2,6 7,7 10,1 9,8 8 4 18 10 ZZO 1013,9 39 0 0,0
16.04.2019 05:00:00 9,9 3,0 6,2 10,2 9,8 13 7 20 11 ZZO 1013,8 28 0 0,0
16.04.2019 04:00:00 7,8 2,3 5,8 10,3 9,8 8 5 13 7 O 1014,1 20 0 0,0
16.04.2019 03:00:00 7,7 2,4 4,0 10,4 9,8 12 7 16 9 OZO 1014,3 20 0 0,0
16.04.2019 02:00:00 6,1 2,0 4,1 10,4 9,8 11 6 14 7 O 1014,9 19 0 0,0
16.04.2019 01:00:00 7,0 2,5 5,5 10,4 9,8 10 5 11 6 O 1015,3 20 0 0,0
16.04.2019 00:00:00 9,4 2,3 6,6 10,4 9,8 7 4 13 7 ZO 1014,9 17 0 0,0
15.04.2019 23:00:00 10,7 1,5 7,8 10,3 9,8 8 4 13 7 O 1014,7 40 0 0,0
15.04.2019 22:00:00 11,4 1,9 8,7 10,1 9,8 8 5 17 9 O 1014,6 37 0 0,0
15.04.2019 21:00:00 12,0 1,3 9,0 9,9 9,8 10 6 16 8 ONO 1014,8 30 0 0,0
15.04.2019 20:00:00 14,9 1,7 13,1 9,5 9,8 11 6 24 13 ZO 1014,7 57 36 0,0
15.04.2019 19:00:00 16,9 1,7 17,8 9,2 9,8 16 9 36 20 OZO 1014,8 41 60 0,0
15.04.2019 18:00:00 17,3 1,7 20,0 8,9 9,8 21 11 40 21 OZO 1015,2 19 60 0,0
15.04.2019 17:00:00 16,9 2,1 20,2 8,5 9,8 22 12 35 19 OZO 1015,9 14 60 0,0
15.04.2019 16:00:00 16,3 1,6 19,6 8,3 9,8 23 12 36 19 O 1016,7 12 60 0,0
15.04.2019 15:00:00 16,0 1,7 19,6 8,0 9,8 25 13 37 20 O 1017,8 16 60 0,0
15.04.2019 14:00:00 14,8 2,0 18,4 7,9 9,9 23 12 38 21 O 1018,9 13 60 0,0
15.04.2019 13:00:00 12,9 -0,1 17,1 7,8 9,8 20 11 33 18 O 1020,0 18 60 0,0
15.04.2019 12:00:00 12,3 -0,3 15,4 7,8 9,9 19 10 29 16 OZO 1021,1 10 60 0,0
15.04.2019 11:00:00 10,3 -0,2 12,0 7,9 9,9 16 9 31 17 O 1021,5 17 60 0,0
15.04.2019 10:00:00 8,1 -0,2 8,4 8,1 9,9 18 10 29 15 OZO 1022,3 12 60 0,0
15.04.2019 09:00:00 5,5 -0,8 4,2 8,2 9,9 11 6 22 12 O 1023,0 15 60 0,0
15.04.2019 08:00:00 3,0 -1,2 -1,0 8,4 9,9 9 5 14 8 O 1023,6 13 46 0,0
15.04.2019 07:00:00 0,4 -2,7 -1,9 8,5 9,9 6 4 11 6 ONO 1023,7 10 0 0,0
15.04.2019 06:00:00 -0,4 -2,6 -3,3 8,7 9,9 0 0 7 4 N 1024,0 7 0 0,0
15.04.2019 05:00:00 -0,2 -2,6 -2,1 8,8 9,9 6 3 12 6 O 1023,9 6 0 0,0
15.04.2019 04:00:00 0,1 -1,5 -2,3 9,0 9,9 3 2 7 4 O 1023,9 5 0 0,0
15.04.2019 03:00:00 -0,1 -2,0 -1,8 9,1 9,9 5 3 10 5 O 1024,3 5 0 0,0
15.04.2019 02:00:00 -0,2 -2,4 -1,8 9,2 9,9 6 4 9 5 O 1024,8 6 0 0,0
15.04.2019 01:00:00 1,3 -1,4 -0,2 9,2 9,9 0 0 4 2 N 1024,8 8 0 0,0
15.04.2019 00:00:00 2,5 -2,2 0,8 9,2 9,9 0 0 3 2 N 1024,5 9 0 0,0
14.04.2019 23:00:00 3,8 -2,6 1,8 9,2 9,9 0 0 8 5 N 1024,2 13 0 0,0
14.04.2019 22:00:00 4,9 -2,7 3,7 9,1 9,9 7 4 16 9 NO 1023,7 14 0 0,0
14.04.2019 21:00:00 7,8 -2,5 6,9 9,0 10,0 11 6 26 14 ONO 1023,1 17 5 0,0
14.04.2019 20:00:00 8,7 -3,5 8,6 8,8 10,0 14 8 22 12 NO 1022,9 24 10 0,0
14.04.2019 19:00:00 9,1 -4,5 9,8 8,6 10,0 9 5 24 13 NO 1022,9 30 43 0,0
14.04.2019 18:00:00 9,3 -5,0 9,6 8,3 9,9 17 9 29 16 ONO 1021,9 19 52 0,0
14.04.2019 17:00:00 9,2 -5,5 9,9 8,1 10,0 12 7 26 14 ONO 1021,8 16 22 0,0
14.04.2019 16:00:00 9,4 -5,3 9,7 7,9 10,0 8 4 30 16 N 1021,9 20 22 0,0
14.04.2019 15:00:00 8,3 -4,2 10,3 7,7 9,9 16 9 29 16 ONO 1022,1 20 4 0,0
14.04.2019 14:00:00 9,0 -3,6 12,3 7,7 10,0 16 9 25 14 N 1022,0 11 50 0,0
14.04.2019 13:00:00 7,2 -4,0 8,3 7,6 10,0 8 5 22 12 O 1022,2 19 15 0,0
14.04.2019 12:00:00 6,1 -4,1 8,4 7,7 10,0 13 7 23 12 N 1022,3 19 37 0,0
14.04.2019 11:00:00 5,8 -1,8 8,1 7,8 10,0 5 3 12 7 NNW 1022,5 14 60 0,0
14.04.2019 10:00:00 2,8 -2,7 5,1 8,0 10,0 5 3 10 5 WZW 1022,3 11 60 0,0
14.04.2019 09:00:00 1,4 -3,7 0,1 8,2 10,0 0 0 5 3 N 1022,2 10 60 0,0
14.04.2019 08:00:00 -2,2 -4,1 -5,4 8,4 10,0 2 1 4 2 O 1022,5 3,7 43 0,0
14.04.2019 07:00:00 -3,7 -5,4 -5,5 8,6 10,0 0 0 8 4 N 1022,4 1,3 0 0,0
14.04.2019 06:00:00 -2,8 -4,4 -5,2 8,7 10,0 0 0 2 1 N 1022,1 6 0 0,0
14.04.2019 05:00:00 -2,6 -4,5 -4,8 8,9 10,0 2 1 3 2 W 1022,3 9 0 0,0
14.04.2019 04:00:00 -1,8 -4,5 -3,4 9,1 10,0 3 1 5 3 WNW 1022,2 8 0 0,0
14.04.2019 03:00:00 -1,2 -4,2 -2,5 9,2 10,0 3 1 6 3 WNW 1022,1 11 0 0,0
14.04.2019 02:00:00 -0,8 -4,2 -2,8 9,4 10,0 6 3 6 4 WNW 1022,4 13 0 0,0
14.04.2019 01:00:00 0,1 -4,4 -2,2 9,5 10,0 5 3 7 4 N 1022,5 17 0 0,0
14.04.2019 00:00:00 0,8 -4,6 -0,7 9,5 10,0 4 2 6 3 NO 1022,7 18 0 0,0
13.04.2019 23:00:00 2,0 -4,5 0,2 9,6 10,0 2 1 11 6 NNO 1022,7 23 0 0,0
13.04.2019 22:00:00 2,1 -4,9 1,2 9,5 10,0 9 5 12 6 NNO 1022,9 31 0 0,0
13.04.2019 21:00:00 3,9 -4,6 3,2 9,5 10,0 11 6 21 11 N 1022,8 35 0 0,0
13.04.2019 20:00:00 5,7 -5,6 5,5 9,4 10,0 11 6 24 13 N 1022,2 38 24 0,0
13.04.2019 19:00:00 7,2 -5,2 7,4 9,2 10,0 14 8 34 19 NNW 1021,6 40 30 0,0
13.04.2019 18:00:00 7,6 -6,2 8,1 9,1 10,0 21 11 32 17 N 1021,5 22 25 0,0
13.04.2019 17:00:00 8,0 -8,1 9,6 9,0 10,0 17 9 33 18 NNO 1021,7 16 24 0,0
13.04.2019 16:00:00 8,4 -8,2 9,4 8,9 10,0 18 10 29 16 N 1021,8 27 3 0,0
13.04.2019 15:00:00 8,0 -8,1 9,1 8,8 10,0 16 9 30 16 NNO 1022,0 41 14 0,0
13.04.2019 14:00:00 7,6 -6,9 8,8 8,8 10,0 15 8 31 17 NNO 1022,3 26 13 0,0
13.04.2019 13:00:00 6,8 -7,6 8,0 8,8 10,0 20 11 32 17 NNO 1022,4 41 29 0,0
13.04.2019 12:00:00 6,3 -6,7 7,1 8,9 10,0 18 10 32 17 NNO 1022,7 27 2 0,0
13.04.2019 11:00:00 6,5 -7,2 7,8 9,0 10,0 18 10 30 16 NO 1022,7 19 55 0,0
13.04.2019 10:00:00 5,1 -3,7 4,5 9,2 10,0 18 10 27 14 NNO 1022,8 16 49 0,0
13.04.2019 09:00:00 3,0 -3,6 1,9 9,4 10,0 14 7 21 12 NNO 1022,9 19 0 0,0
13.04.2019 08:00:00 1,4 -4,5 -0,6 9,5 10,0 6 4 14 7 N 1022,9 20 0 0,0
13.04.2019 07:00:00 0,1 -5,5 -1,1 9,7 10,0 8 4 13 7 N 1022,7 20 0 0,0
13.04.2019 06:00:00 0,4 -5,8 -2,1 9,9 10,0 6 3 13 7 N 1022,5 26 0 0,0

tt = temperatuur
td = dauwpunt
tt 5cm = temperatuur 5cm
tt -20cm = temperatuur -20cm
tt -100cm = temperatuur -100cm
ff = windsnelheid
fx = windstoten
dd = windrichting
ppp = luchtdruk
vv = zicht
sd = Zonneschijnduur
rr = neerslag

Weerstations in de omgeving